Miscellaneous Local Product
Issued by NWS Hastings, NE

Home | Current Version | Previous Version | Graphics & Text | Print | Product List | Glossary On
Versions: 1 2 3 4 5 6 7 8 9 10 11 12 13 14 15 16 17 18 19 20 21 22 23 24 25 26 27 28 29 30 31 32 33 34 35 36 37 38 39 40 41 42 43 44 45 46 47 48 49 50
747
AXUS43 KGID 250002
MISGRI

GID CWA HOURLY WEATHER ROUNDUP
NATIONAL WEATHER SERVICE HASTINGS NE
700 PM CDT TUE MAY 24 2016

NOTE: "FAIR" INDICATES FEW OR NO CLOUDS BELOW 12,000 FEET WITH NO
SIGNIFICANT WEATHER AND/OR OBSTRUCTIONS TO VISIBILITY.

...SOUTH CENTRAL NEBRASKA...

CITY           SKY/WX    TMP DP  RH WIND       PRES   REMARKS
GRAND ISLAND   MOSUNNY   77  61  57 SE9       29.84F
HASTINGS       SUNNY     78  58  49 S10       29.83F
KEARNEY        CLOUDY    77  57  50 SE15      29.85S
ORD            SUNNY     79  54  41 SE12      29.82F
YORK           MOSUNNY   81  61  50 S12       29.85F
AURORA         CLOUDY    80  60  50 S10       29.84F
LEXINGTON      MOSUNNY   75  59  56 SE13      29.83F
HOLDREGE       CLOUDY    76  56  49 S12G17    29.84F
HEBRON         SUNNY     81  56  42 S12G17    29.85S

...NEBRASKA PANHANDLE...

CITY           SKY/WX    TMP DP  RH WIND       PRES   REMARKS
CHADRON        PTSUNNY   68  43  40 N13G25    29.80R
ALLIANCE       CLOUDY    71  49  45 S18G28    29.80F
SCOTTSBLUFF    TSTM      71  35  26 SE29G54   29.81R
SIDNEY         CLOUDY    69  53  56 S6        29.86R

...WESTERN AND NORTH CENTRAL NEBRASKA...

CITY           SKY/WX    TMP DP  RH WIND       PRES   REMARKS
VALENTINE      CLOUDY    80  47  31 SE17G24   29.79F
AINSWORTH      SUNNY     77  47  35 SE12      29.82F
ONEILL         SUNNY     81  51  34 E7        29.83F
BROKEN BOW     MOSUNNY   79  56  45 SE12G18   29.83F
IMPERIAL       CLOUDY    73  59  61 SE14      29.81F
NORTH PLATTE   MOSUNNY   74  59  59 S12       29.81F
MCCOOK         MOSUNNY   75  60  59 SE15G22   29.79F

...EASTERN NEBRASKA...

CITY           SKY/WX    TMP DP  RH WIND       PRES   REMARKS
NORFOLK        MOSUNNY   81  58  45 SE18      29.83S
SO SIOUX CITY  SUNNY     81  66  60 SE10      29.84F
TEKAMAH        SUNNY     81  59  47 SE9       29.85S
COLUMBUS       SUNNY     81  55  41 SE13      29.86S
ALBION         SUNNY     79  57  46 SE13      29.84F
OMAHA EPPLEY   MOSUNNY   81  59  47 SE7       29.86S
MILLARD        SUNNY     81  60  48 SE7       29.86F
LINCOLN        MOSUNNY   80  60  50 S6        29.86F
NEBRASKA CITY  SUNNY     80  60  50 E5        29.87S
BEATRICE       SUNNY     81  62  52 SE9       29.85F
FALLS CITY     SUNNY     82  63  52 S3        29.85F

...NORTHERN KANSAS...

CITY           SKY/WX    TMP DP  RH WIND       PRES   REMARKS
GOODLAND       MOSUNNY   78  60  53 SE17G23   29.78F
HILL CITY      CLOUDY    77  60  55 SE20G35   29.72F
NORTON         CLEAR     75  57  53 E15G21    29.79F
PHILLIPSBURG   SUNNY     73  64  73 E13       29.79F
SMITH CENTER   MOSUNNY   72  64  78 SE9       29.83R
BELOIT         SUNNY     77  64  65 SE8       29.79F
HAYS           CLOUDY    75  63  64 E10       29.83R
RUSSELL        CLOUDY    75  67  76 E10       29.80S
CONCORDIA      SUNNY     78  64  61 SE14      29.81F
SALINA         SUNNY     81  69  67 SE15      29.78F
TOPEKA         PTSUNNY   80  68  66 SE9       29.87R



USA.gov is the U.S. government's official web portal to all federal, state and local government web resources and services.